[[{"header":{"parameterUnit":"m.s-1","parameterCategory":1,"la1":30.2991,"la2":30.254,"lo1":-89.0895,"lo2":-89.0444,"dx":0.0017,"dy":0.0017,"nx":28,"ny":28,"refTime":"2022-11-28T15:00:00:Z","depth":0,"parameterNumber":2,"parameterNumberName":"U-component_of_WINDS"},"data":[0,0,0,0,0,0,0,0,0,0,0,0,0,0,0,0,0,0,0,0,0,0,0,0,0,0,0,0,0,0,0,0,0,0,0,0,0,0,0,0,0,0,0,0,0,0,0,0,0,0,0,0,0,0,0,0,0,0,1.1529,1.1529,0,1.1558,1.1559,1.1559,1.1542,1.1541,1.154,1.154,1.157,1.1571,1.1573,0,0,0,0,0,0,0,0,0,0,0,0,0,1.1458,1.146,1.1529,1.1529,1.153,1.1558,1.1559,1.1559,1.1542,1.1541,1.154,1.1539,1.1569,1.1571,1.1573,0,0,0,0,0,0,0,0,0,0,0,0,0,1.1488,1.146,1.1529,1.1525,1.1525,1.1558,1.1559,1.1559,1.1542,1.1541,1.154,1.1539,1.1568,1.1571,1.1573,1.1613,0,0,1.158,1.1581,0,0,0,0,0,0,0,0,1.1487,1.1491,1.1525,1.1525,1.1525,1.1545,1.1545,1.1577,1.1543,1.1536,1.154,1.1538,1.1562,1.1565,1.1574,1.1614,1.1615,1.158,1.1582,1.1583,1.1584,0,0,0,0,0,0,0,1.1485,1.149,1.1541,1.1526,1.1526,1.1521,1.1524,1.1551,1.1556,1.1536,1.1535,1.1539,1.1562,1.1571,1.1574,1.1616,1.158,1.1582,1.1584,1.1585,1.169,1.1691,0,0,0,0,0,0,1.1483,1.1488,1.154,1.1542,1.1502,1.1524,1.1527,1.154,1.1555,1.1557,1.154,1.1538,1.1568,1.1571,1.1575,1.1623,1.1583,1.1585,1.1586,1.1689,1.169,1.1692,0,0,0,0,0,0,1.1481,1.1488,1.1539,1.1515,1.1521,1.1526,1.1541,1.1541,1.155,1.1558,1.1559,1.1548,1.1567,1.1572,1.1603,1.1623,1.1586,1.1588,1.1687,1.1689,1.1691,1.1718,0,0,0,0,0,0,1.1479,1.1487,1.1502,1.1515,1.1522,1.1567,1.1542,1.1543,1.1554,1.1552,1.1566,1.1567,1.1566,1.16,1.1606,1.1626,1.159,1.1685,1.1688,1.1691,1.1715,1.172,1.1725,0,0,0,0,0,1.1477,1.1508,1.1503,1.1509,1.1541,1.1568,1.1572,1.157,1.1556,1.1571,1.1576,1.1567,1.162,1.1603,1.161,1.1631,1.1684,1.1687,1.169,1.1713,1.1719,1.1725,0,0,0,0,0,0,1.1498,1.151,1.1504,1.1541,1.1553,1.1565,1.1584,1.1577,1.1594,1.1591,1.1588,1.1592,1.1625,1.1631,1.1612,1.167,1.165,1.1654,1.1665,1.1671,1.1676,1.1674,1.1592,0,0,0,0,0,1.1507,1.1527,1.1537,1.1568,1.1575,1.1578,1.159,1.1588,1.1601,1.1606,1.1613,1.1626,1.1646,1.1659,1.1677,1.1716,1.1719,1.1733,1.1738,1.1742,1.1746,1.1768,1.1774,1.1702,1.1702,1.1702,0,0,1.1525,1.1534,1.1548,1.1573,1.1582,1.1604,1.1583,1.1607,1.1623,1.1609,1.164,1.1646,1.166,1.1695,1.1711,1.1701,1.1767,1.1746,1.175,1.1751,1.1771,1.1778,1.1784,1.1704,1.1704,1.1704,0,0,1.157,1.1579,1.1606,1.1616,1.1631,1.1633,1.1639,1.1652,1.1656,1.1686,1.1677,1.1696,1.1729,1.174,1.175,1.1799,1.1791,1.1805,1.1831,1.1852,1.1857,1.1862,1.188,1.1886,1.1809,1.1809,1.1809,0,1.1591,1.1623,1.1621,1.1645,1.1657,1.1646,1.1674,1.1683,1.1703,1.1711,1.17,1.1743,1.1751,1.1789,1.1801,1.1809,1.1817,1.1803,1.1857,1.1862,1.1866,1.1883,1.189,1.1811,1.181,1.181,1.181,0,1.1648,1.1671,1.1691,1.1711,1.1725,1.1751,1.1752,1.1766,1.1763,1.1766,1.1798,1.1808,1.1828,1.1837,1.1834,1.1875,1.1868,1.1857,1.1837,1.1875,1.1891,1.1897,1.1813,1.1812,1.1812,1.1811,0,0,1.1707,1.1725,1.1733,1.1742,1.1758,1.1775,1.18,1.1821,1.1833,1.1847,1.1868,1.1897,1.1887,1.1898,1.1896,1.1914,1.1953,1.1901,1.1901,1.191,1.1999,1.2007,1.2015,1.1948,1.1949,1.195,1.1998,0,1.1753,1.1798,1.1796,1.1838,1.1859,1.1849,1.1871,1.1883,1.1887,1.1906,1.191,1.1931,1.1915,1.1922,1.1939,1.1945,1.1971,1.1941,1.1968,1.1969,1.1965,1.2023,1.2032,1.2077,1.2004,1.2005,1.2005,0,1.1812,1.1829,1.1873,1.1885,1.1894,1.1914,1.1933,1.195,1.1964,1.1965,1.1978,1.1973,1.1999,1.1978,1.2014,1.1994,1.2005,1.2009,1.201,1.2013,1.1989,1.2027,1.2091,1.2098,1.2015,1.2014,1.2014,0,1.1851,1.1884,1.1914,1.1922,1.1938,1.1953,1.196,1.1972,1.1984,1.2001,1.2009,1.2027,1.2038,1.2053,1.2053,1.2038,1.2089,1.2068,1.2091,1.2092,1.2103,1.2102,1.2169,1.211,1.2109,1.2109,1.2109,0,1.1902,1.1929,1.1932,1.1951,1.1981,1.198,1.201,1.2016,1.2027,1.2046,1.2039,1.2058,1.2057,1.2076,1.2076,1.2106,1.2111,1.2113,1.2113,1.2114,1.2113,1.2121,1.2118,1.2111,1.2111,1.211,1.211,0,1.195,1.1953,1.1986,1.1998,1.2002,1.2024,1.2034,1.2052,1.2056,1.2081,1.2087,1.2092,1.2114,1.2116,1.2141,1.2141,1.2177,1.2174,1.2173,1.2173,1.2196,1.2194,1.227,1.228,1.2214,1.2214,1.2215,0,1.1983,1.2004,1.2019,1.2031,1.2039,1.206,1.2073,1.2072,1.2086,1.2103,1.2119,1.214,1.2157,1.2193,1.2199,1.2218,1.2215,1.2241,1.2218,1.2219,1.2216,1.2215,1.2217,1.2245,1.2246,1.2246,1.2247,0,1.2041,1.2041,1.206,1.2079,1.2095,1.211,1.2124,1.2135,1.2136,1.2152,1.2174,1.2188,1.2214,1.2235,1.2254,1.2261,1.2255,1.2254,1.226,1.2262,1.226,1.2262,1.2185,1.2252,1.2252,1.2251,1.2251,1.2251,1.2082,1.21,1.2114,1.2135,1.2146,1.2159,1.2177,1.2182,1.2201,1.2223,1.2221,1.2246,1.2259,1.2285,1.2293,1.2313,1.2304,1.2313,1.2316,1.2318,1.2321,1.2257,1.2316,1.2316,1.2316,1.2316,1.2316,0,1.214,1.2148,1.2167,1.2188,1.2204,1.2197,1.2212,1.2226,1.2249,1.2262,1.2279,1.2305,1.2326,1.2333,1.2354,1.2368,1.2365,1.2373,1.2372,1.2374,1.2327,1.232,1.2375,1.2375,1.2375,1.2375,1.2375,1.2375,1.2171,1.2202,1.2204,1.224,1.2248,1.2273,1.2282,1.2295,1.2305,1.2335,1.2352,1.2357,1.2368,1.2389,1.2408,1.2409,1.2417,1.2427,1.2427,1.2383,1.2377,1.2372,1.2365,1.2428,1.2429,1.2472,1.2473,1.2473]},{"header":{"parameterUnit":"m.s-1","parameterCategory":1,"la1":30.2991,"la2":30.254,"lo1":-89.0895,"lo2":-89.0444,"dx":0.0017,"dy":0.0017,"nx":28,"ny":28,"refTime":"2022-11-28T15:00:00:Z","depth":0,"parameterNumber":3,"parameterNumberName":"V-component_of_WINDS"},"data":[0,0,0,0,0,0,0,0,0,0,0,0,0,0,0,0,0,0,0,0,0,0,0,0,0,0,0,0,0,0,0,0,0,0,0,0,0,0,0,0,0,0,0,0,0,0,0,0,0,0,0,0,0,0,0,0,0,0,4.8808,4.881,0,4.9,4.9002,4.9005,4.9033,4.9032,4.903,4.9028,4.9223,4.923,4.9236,0,0,0,0,0,0,0,0,0,0,0,0,0,4.8467,4.8473,4.8808,4.8811,4.8813,4.9,4.9002,4.9005,4.9034,4.9032,4.9029,4.9027,4.9221,4.9229,4.9237,0,0,0,0,0,0,0,0,0,0,0,0,0,4.8632,4.8475,4.8808,4.885,4.8855,4.8999,4.9003,4.9006,4.9034,4.9031,4.9029,4.9026,4.9218,4.9228,4.9238,4.9353,0,0,4.9269,4.9274,0,0,0,0,0,0,0,0,4.8623,4.8645,4.8841,4.8847,4.8854,4.899,4.8954,4.9122,4.9035,4.8966,4.9028,4.9025,4.9147,4.9163,4.9205,4.9362,4.937,4.927,4.9276,4.9281,4.9283,0,0,0,0,0,0,0,4.8612,4.8637,4.8884,4.8844,4.8852,4.8859,4.888,4.8986,4.9069,4.8972,4.8975,4.8997,4.915,4.9195,4.921,4.9373,4.927,4.9279,4.9285,4.9289,4.9638,4.9641,0,0,0,0,0,0,4.8593,4.8627,4.8878,4.889,4.873,4.8867,4.8891,4.8949,4.9068,4.9084,4.8999,4.8998,4.9179,4.9198,4.9217,4.9362,4.928,4.929,4.9296,4.9635,4.9639,4.9642,0,0,0,0,0,0,4.8585,4.8615,4.887,4.8759,4.8793,4.8876,4.8941,4.8954,4.8999,4.9088,4.9103,4.9029,4.9178,4.9202,4.932,4.9369,4.9295,4.9304,4.9631,4.9636,4.9641,4.9652,0,0,0,0,0,0,4.8575,4.8612,4.8656,4.876,4.8798,4.897,4.8944,4.896,4.9017,4.9017,4.9121,4.9136,4.9177,4.9305,4.933,4.9382,4.9312,4.9627,4.9634,4.9639,4.9648,4.9657,4.9664,0,0,0,0,0,4.8563,4.865,4.8658,4.8688,4.8855,4.8973,4.8995,4.9042,4.902,4.9066,4.9124,4.9132,4.9359,4.9316,4.9345,4.9401,4.9624,4.9632,4.9639,4.9644,4.9655,4.9664,0,0,0,0,0,0,4.8548,4.8664,4.8674,4.8798,4.8876,4.8977,4.9036,4.9051,4.9136,4.9132,4.9186,4.9209,4.9325,4.9374,4.9324,4.9521,4.949,4.9503,4.9484,4.9496,4.9504,4.949,4.932,0,0,0,0,0,4.8559,4.8645,4.8742,4.8842,4.888,4.8952,4.9004,4.9034,4.9117,4.9149,4.9216,4.9295,4.9385,4.9442,4.9529,4.9654,4.9679,4.9707,4.9716,4.9722,4.9734,4.9807,4.9822,4.9666,4.9666,4.9666,0,0,4.8583,4.8657,4.8708,4.8841,4.8904,4.8993,4.8979,4.9072,4.9139,4.9163,4.928,4.9331,4.9423,4.9546,4.9603,4.9591,4.9782,4.9731,4.9735,4.9744,4.9816,4.9831,4.9844,4.9671,4.967,4.9669,0,0,4.8673,4.8736,4.8828,4.8893,4.899,4.9038,4.906,4.9161,4.9197,4.9314,4.9335,4.9415,4.9567,4.9633,4.9687,4.9805,4.9817,4.9831,4.9875,4.9947,4.9959,4.997,5.0016,5.0031,4.9842,4.9842,4.9842,0,4.869,4.8825,4.8873,4.8968,4.9027,4.9054,4.9149,4.9209,4.9329,4.937,4.9354,4.9548,4.9612,4.9752,4.9782,4.9823,4.9851,4.9821,4.9953,4.9965,4.9976,5.002,5.0037,4.9843,4.9843,4.9843,4.9843,0,4.8843,4.8936,4.8999,4.9117,4.9183,4.9276,4.934,4.9401,4.9426,4.9475,4.9596,4.9674,4.9779,4.9814,4.9837,4.9959,4.9949,4.9942,4.9913,4.9992,5.0034,5.0051,4.9846,4.9845,4.9845,4.9844,0,0,4.8928,4.9074,4.9097,4.9152,4.9263,4.9336,4.9432,4.9536,4.9589,4.9671,4.9754,4.9884,4.988,4.994,4.9972,5.0034,5.0127,5.0021,5.0024,5.0041,5.027,5.0276,5.0295,5.0135,5.0138,5.0141,5.0264,0,4.9033,4.9206,4.9254,4.9401,4.9489,4.9518,4.9602,4.9679,4.9728,4.9811,4.9864,4.9957,4.9943,4.998,5.0043,5.0103,5.0175,5.0094,5.0215,5.0219,5.0194,5.0317,5.0323,5.0435,5.028,5.0283,5.0285,0,4.9178,4.9267,4.9422,4.9525,4.9564,4.9639,4.974,4.9818,4.9907,4.9939,5.0008,5.0035,5.0138,5.0102,5.0245,5.019,5.0242,5.0279,5.0284,5.0299,5.0258,5.0338,5.0471,5.0489,5.0311,5.0309,5.0307,0,4.9229,4.9386,4.9501,4.9547,4.9669,4.9721,4.9774,4.9861,4.9922,5.001,5.0051,5.0149,5.0203,5.0279,5.0332,5.0301,5.0472,5.044,5.0503,5.0502,5.054,5.0537,5.0686,5.0568,5.0568,5.0568,5.0567,0,4.9343,4.9438,4.9526,4.9597,4.9705,4.976,4.9865,4.9919,4.9997,5.008,5.0109,5.0186,5.025,5.0336,5.0378,5.0492,5.0516,5.0545,5.0556,5.0545,5.0541,5.0581,5.0576,5.0572,5.0571,5.057,5.057,0,4.9418,4.9481,4.9609,4.9715,4.9744,4.9819,4.991,4.998,5.0031,5.0135,5.0163,5.0243,5.0346,5.0406,5.0535,5.0563,5.0691,5.0697,5.0662,5.0667,5.0729,5.0723,5.0911,5.094,5.0799,5.0801,5.0802,0,4.9488,4.9563,4.9678,4.9736,4.979,4.9883,4.9946,5.0003,5.0068,5.0177,5.0235,5.034,5.0428,5.0591,5.066,5.076,5.077,5.0829,5.0785,5.0773,5.0775,5.0772,5.0781,5.0837,5.0839,5.084,5.084,0,4.9607,4.9635,4.9725,4.9828,4.9903,4.9986,5.0068,5.0114,5.0185,5.0256,5.0363,5.0431,5.0565,5.067,5.0776,5.0831,5.0849,5.0854,5.0874,5.0865,5.0843,5.0859,5.0686,5.0849,5.0848,5.0848,5.0847,5.0847,4.9684,4.9753,4.9846,4.9947,5.0015,5.0092,5.0165,5.0226,5.0316,5.0431,5.0459,5.0572,5.0662,5.0807,5.0865,5.0954,5.0945,5.0973,5.0981,5.0988,5.0992,5.0826,5.0973,5.0973,5.0973,5.0973,5.0973,0,4.9807,4.9869,4.9961,5.0077,5.0157,5.0167,5.026,5.0326,5.0425,5.0508,5.0595,5.0719,5.0822,5.09,5.1006,5.1063,5.1074,5.1089,5.1087,5.11,5.0993,5.0966,5.1079,5.1079,5.1079,5.1079,5.1078,5.1078,4.988,4.9999,5.0039,5.0193,5.0254,5.0366,5.0419,5.0491,5.0558,5.0696,5.0782,5.0833,5.0915,5.1028,5.1123,5.1144,5.1182,5.1197,5.1219,5.1118,5.1107,5.1096,5.1072,5.1204,5.1204,5.1319,5.132,5.1321]}]]